This is the latest recevied weather packets stored in our database for station/object VU3CAM-13. If no packets are shown the sender has not sent any weather packets the latest 10 day(s).
| Time | Temp. | Humidity | Pressure | Rain* | Wind** | Luminosity | Snow |
|---|---|---|---|---|---|---|---|
| 1788405722 | 23.89° C | 76% | 912.9 hPa | - | - | - | - |
| 1788405122 | 23.33° C | 77% | 912.9 hPa | - | - | - | - |
| 1788404522 | 23.89° C | 75% | 912.9 hPa | - | - | - | - |
| 1788403922 | 23.89° C | 75% | 912.7 hPa | - | - | - | - |
| 1788403322 | 23.33° C | 77% | 912.7 hPa | - | - | - | - |
| 1788402722 | 23.33° C | 77% | 912.6 hPa | - | - | - | - |
| 1788402122 | 23.33° C | 75% | 912.6 hPa | - | - | - | - |
| 1788401522 | 23.89° C | 75% | 912.4 hPa | - | - | - | - |
| 1788400922 | 23.33° C | 77% | 912 hPa | - | - | - | - |
| 1788400322 | 23.89° C | 75% | 912 hPa | - | - | - | - |
| 1788399722 | 23.89° C | 75% | 911.9 hPa | - | - | - | - |
| 1788399122 | 23.33° C | 77% | 911.8 hPa | - | - | - | - |
| 1788398522 | 24.44° C | 72% | 911.7 hPa | - | - | - | - |
| 1788397922 | 23.89° C | 74% | 911.6 hPa | - | - | - | - |
| 1788397322 | 24.44° C | 72% | 911.6 hPa | - | - | - | - |
| 1788396722 | 23.33° C | 75% | 911.5 hPa | - | - | - | - |
| 1788396122 | 24.44° C | 73% | 911.6 hPa | - | - | - | - |
| 1788395522 | 23.33° C | 75% | 911.6 hPa | - | - | - | - |
| 1788394922 | 25° C | 69% | 911.6 hPa | - | - | - | - |
| 1788394322 | 25.56° C | 67% | 911.6 hPa | - | - | - | - |
| 1788393722 | 26.11° C | 65% | 911.6 hPa | - | - | - | - |
| 1788393122 | 25.56° C | 67% | 911.7 hPa | - | - | - | - |
| 1788392522 | 25.56° C | 67% | 911.6 hPa | - | - | - | - |
| 1788391922 | 25.56° C | 66% | 911.6 hPa | - | - | - | - |
| 1788391322 | 25.56° C | 66% | 911.5 hPa | - | - | - | - |
* Rain since midnight (hover to see other rain measurements)
** Current wind speed in m/s (hover to see current wind gust speed)